Вернуться в каталог

STARLINK-32570

АктивенСвязьVLEO
NORAD 62137·PAYLOAD·🇺🇸 United States

Запущен Nov 27, 2024 с Cape Canaveral Space Force Station

Loading…

Ближайшие Пролёты (ближайшие 24 часа)

TLE

СвежийSource: CelesTrak SupGP

Эпоха: Sep 14, 2026, 22:40 UTC

1 62137C 24222Z   26257.94493056 -.00034737  00000+0 -12581-2 0  2574
2 62137  43.0026 147.3785 0001415 271.5904  64.9924 15.27596269    17

Отслеживайте STARLINK-32570 в реальном времени с AllMySat

Download on the App Store